Home   Weather   Long Beach   Past weeks

Flag for USA Past Weather in Long Beach, California, USA — Yesterday and Last 2 Weeks

Now
72 °F

Clear.


Feels Like: 73 °F
Forecast: 65 / 83 °F
Wind: 3 mph from Southeast

Location: Long Beach Airport

Current Time: Sep 29, 2016 at 11:46:22 PM

Latest Report: Sep 29, 2016 at 10:53 PM


Visibility: 10 mi

Pressure: 30.02 "Hg

Humidity: 76%

Dew Point: 64 °F

Location of Long BeachLocation

Past Weather in Long Beach — Graph

°F

Long Beach Temperature Yesterday

Maximum temperature yesterday: 90 °F (at 2:53 PM)
Minimum temperature yesterday: 70 °F (at 4:53 AM)
Average temperature yesterday: 79 °F

High & Low Weather Summary for the Past Weeks

 TemperatureHumidityPressure
High105 °F (Sep 26, 1:53 PM)100% (Sep 19, 5:53 AM)30.02 "Hg (Sep 19, 5:53 AM)
Low59 °F (Sep 15, 5:53 AM)7% (Sep 26, 12:53 PM)29.81 "Hg (Sep 27, 2:53 PM)
Average74 °F58%29.92 "Hg
* Reported Sep 14 9:53 PM — Sep 29 9:53 PM, Long Beach, Weather by CustomWeather, © 2016

Note: Actual official high and low records may vary slightly from our data, if they occured in-between our weather recording intervals... More about our weather records

Advertising

Long Beach Weather History for the Previous 24 Hours

Scroll right to see more
 ConditionsComfort  
Time TempWeatherWind HumidityBarometerVisibility
9:53 PM
Thu, Sep 29
74 °FClear.3 mph53%30.01 "Hg10 mi
8:53 PM76 °FClear.5 mph48%30.01 "Hg10 mi
7:53 PM77 °FClear.7 mph44%29.99 "Hg10 mi
6:53 PM79 °FClear.10 mph41%29.97 "Hg10 mi
5:53 PM82 °FSunny.7 mph41%29.98 "Hg10 mi
4:53 PM84 °FSunny.13 mph37%29.96 "Hg10 mi
3:53 PM86 °FSunny.14 mph36%29.96 "Hg10 mi
2:53 PM87 °FSunny.9 mph37%29.98 "Hg10 mi
1:53 PM91 °FSunny.13 mph33%29.98 "Hg10 mi
12:53 PM91 °FSunny.5 mph30%30.00 "Hg10 mi
11:53 AM90 °FSunny.6 mph32%30.01 "Hg10 mi
10:53 AM88 °FSunny.No wind31%30.02 "Hg10 mi
9:53 AM83 °FSunny.3 mph40%30.02 "Hg10 mi
8:53 AM78 °FSunny.3 mph52%30.01 "Hg10 mi
7:53 AM74 °FSunny.No wind62%30.00 "Hg10 mi
6:53 AM71 °FSunny.No wind73%29.99 "Hg10 mi
5:53 AM71 °FClear.3 mph71%29.97 "Hg10 mi
4:53 AM71 °FClear.5 mph71%29.96 "Hg10 mi
3:53 AM71 °FClear.5 mph71%29.95 "Hg10 mi
2:53 AM71 °FClear.No wind76%29.95 "Hg10 mi
1:53 AM73 °FClear.No wind69%29.95 "Hg10 mi
12:53 AM73 °FClear.No wind69%29.95 "Hg10 mi
11:53 PM
Wed, Sep 28
74 °FClear.7 mph64%29.94 "Hg10 mi
Weather by CustomWeather, © 2016

See weather overviewHow to use our weather pages